Date String (YYYY-MM-DD hh:mm:ss) UTC,Instrument flags,absolute air pressure of the measurement (hPa),sample flow rate (lpm),inlet stack bypass flow (lpm),air temperature of the measurement (°C),ambient temperature measured by the external sensor (°C),aerosol sample conditioner tube jacket temperature (°C),OPC LED temperature (°C),internal box temperature (°C),relative humidity of the measurement (%),span deviation,mass concentration of particles derived from Lorenz-Mie calculation of OPC scattering (μg/m³),mass concentration of particles derived from Lorenz-Mie calculation of OPC scattering (μg/m³),mass concentration of particles derived from Lorenz-Mie calculation of OPC scattering (μg/m³)
DateTimeUTC,F1_M11,P_M11,Q1_M11,Q2_M11,T1_M11,T2_M11,T3_M11,T4_M11,T5_M11,U1_M11,ZSPAN_M11,X2_M11,X0_M11,X1_M11
2023-08-20 18:00:00,SystemResetWarning,0836.8,4.99,000.00,031.9,024.8,000.0,039.4,030.5,34.9,0001.0,0012.77,0018.64,0011.71
2023-08-20 18:01:00,SystemResetWarning,0836.7,5.00,000.00,031.8,025.3,000.0,039.5,030.5,35.3,0000.8,0012.70,0019.36,0011.69
2023-08-20 18:02:00,SystemResetWarning,0836.6,5.01,000.00,031.9,025.7,000.0,039.5,030.8,35.1,0000.9,0012.67,0019.10,0011.67
2023-08-20 18:03:00,SystemResetWarning,0836.6,5.00,000.00,032.1,026.0,000.0,039.5,031.0,34.9,0000.8,0012.67,0019.36,0011.68
2023-08-20 18:04:00,SystemResetWarning,0836.6,4.99,000.00,032.3,026.0,000.0,039.4,031.0,34.5,0000.6,0012.65,0019.96,0011.67
2023-08-20 18:05:00,SystemResetWarning,0836.6,4.99,000.00,032.4,025.0,000.0,039.3,030.8,34.4,0000.5,0012.69,0020.68,0011.66
2023-08-20 18:06:00,SystemResetWarning,0836.6,5.03,000.00,032.5,024.3,000.0,039.3,030.7,34.8,0000.3,0012.69,0020.31,0011.65
2023-08-20 18:07:00,SystemResetWarning,0836.6,4.98,000.00,032.4,024.4,000.0,039.3,030.6,34.3,0000.7,0012.73,0020.39,0011.62
2023-08-20 18:08:00,SystemResetWarning,0836.6,5.00,000.00,032.2,024.8,000.0,039.4,030.5,34.7,0001.0,0012.68,0020.37,0011.58
2023-08-20 18:09:00,SystemResetWarning,0836.6,4.99,000.00,032.0,025.2,000.0,039.4,030.5,34.9,0001.1,0012.62,0019.71,0011.54
2023-08-20 18:10:00,SystemResetWarning,0836.5,5.02,000.00,032.0,025.6,000.0,039.5,030.7,35.1,0000.8,0012.58,0019.54,0011.52
2023-08-20 18:11:00,SystemResetWarning,0836.6,4.98,000.00,032.2,026.0,000.0,039.5,030.9,35.1,0001.1,0012.53,0019.78,0011.48
2023-08-20 18:12:00,SystemResetWarning,0836.6,5.01,000.00,032.3,026.3,000.0,039.6,031.1,35.1,0001.2,0012.54,0019.80,0011.46
2023-08-20 18:13:00,SystemResetWarning,0836.6,4.99,000.00,032.7,025.7,000.0,039.5,031.1,34.3,0000.9,0012.55,0019.66,0011.45
2023-08-20 18:14:00,SystemResetWarning,0836.6,5.00,000.00,032.8,024.6,000.0,039.4,030.9,33.3,0000.8,0012.53,0019.56,0011.43
2023-08-20 18:15:00,SystemResetWarning,0836.6,5.01,000.00,032.9,024.4,000.0,039.4,030.7,33.0,0000.8,0012.52,0018.76,0011.43
2023-08-20 18:16:00,SystemResetWarning,0836.6,4.99,000.00,032.7,024.7,000.0,039.5,030.6,33.4,0001.1,0012.52,0017.95,0011.44
2023-08-20 18:17:00,SystemResetWarning,0836.6,5.00,000.00,032.5,025.0,000.0,039.6,030.6,33.6,0001.2,0012.51,0018.55,0011.44
2023-08-20 18:18:00,SystemResetWarning,0836.6,5.00,000.00,032.4,025.5,000.0,039.7,030.7,33.8,0000.9,0012.43,0018.44,0011.40
2023-08-20 18:19:00,SystemResetWarning,0836.6,5.01,000.00,032.4,025.9,000.0,039.7,030.8,34.3,0000.9,0012.40,0019.22,0011.40
2023-08-20 18:20:00,SystemResetWarning,0836.6,4.99,000.00,032.3,026.2,000.0,039.8,030.9,34.5,0000.9,0012.37,0018.96,0011.38
2023-08-20 18:21:00,SystemResetWarning,0836.5,4.98,000.00,032.3,025.6,000.0,039.7,030.8,34.4,0000.9,0012.33,0019.16,0011.34
2023-08-20 18:22:00,SystemResetWarning,0836.5,5.01,000.00,032.2,024.5,000.0,039.5,030.7,34.5,0000.7,0012.32,0019.66,0011.34
2023-08-20 18:23:00,SystemResetWarning,0836.4,4.99,000.00,032.2,024.4,000.0,039.5,030.6,35.0,0000.3,0012.36,0019.05,0011.36
2023-08-20 18:24:00,SystemResetWarning,0836.4,5.04,000.00,032.0,024.6,000.0,039.5,030.5,35.0,0000.7,0012.37,0019.34,0011.35
2023-08-20 18:25:00,SystemResetWarning,0836.4,4.95,000.00,032.0,025.0,000.0,039.5,030.6,35.0,0000.6,0012.33,0019.16,0011.35
2023-08-20 18:26:00,SystemResetWarning,0836.4,5.04,000.00,032.0,025.4,000.0,039.5,030.7,35.2,0000.8,0012.36,0019.44,0011.33
2023-08-20 18:27:00,SystemResetWarning,0836.4,5.00,000.00,032.2,025.8,000.0,039.5,030.9,35.0,0000.7,0012.41,0019.91,0011.32
2023-08-20 18:28:00,SystemResetWarning,0836.4,4.98,000.00,032.4,026.2,000.0,039.5,031.0,34.6,0000.5,0012.48,0019.37,0011.35
2023-08-20 18:29:00,SystemResetWarning,0836.4,4.99,000.00,032.5,026.2,000.0,039.5,031.1,34.6,0000.5,0012.55,0019.43,0011.43
2023-08-20 18:30:00,SystemResetWarning,0836.4,5.00,000.00,032.6,025.1,000.0,039.4,030.8,33.9,0000.4,0012.60,0018.99,0011.49
2023-08-20 18:31:00,SystemResetWarning,0836.4,5.00,000.00,032.6,024.4,000.0,039.4,030.7,34.2,0000.3,0012.65,0018.81,0011.55
2023-08-20 18:32:00,SystemResetWarning,0836.3,5.01,000.00,032.5,024.5,000.0,039.4,030.5,34.1,0000.2,0012.72,0018.60,0011.64
2023-08-20 18:33:00,SystemResetWarning,0836.3,5.01,000.00,032.3,024.8,000.0,039.5,030.5,34.5,0000.3,0012.76,0017.98,0011.68
2023-08-20 18:34:00,SystemResetWarning,0836.3,5.00,000.00,032.1,025.2,000.0,039.5,030.6,34.8,0000.7,0012.79,0018.09,0011.70
2023-08-20 18:35:00,SystemResetWarning,0836.3,4.98,000.00,032.0,025.7,000.0,039.6,030.7,35.3,0000.7,0012.84,0018.29,0011.76
2023-08-20 18:36:00,SystemResetWarning,0836.2,5.03,000.00,032.1,026.1,000.0,039.6,030.9,35.2,0000.8,0012.89,0018.39,0011.82
2023-08-20 18:37:00,SystemResetWarning,0836.3,4.97,000.00,032.3,026.1,000.0,039.6,031.0,34.5,0000.9,0012.89,0018.28,0011.86
2023-08-20 18:38:00,SystemResetWarning,0836.3,5.01,000.00,032.5,025.1,000.0,039.5,030.8,34.0,0001.0,0012.84,0018.25,0011.90
2023-08-20 18:39:00,SystemResetWarning,0836.3,5.02,000.00,032.5,024.4,000.0,039.4,030.7,33.9,0001.2,0012.81,0018.41,0011.93
2023-08-20 18:40:00,SystemResetWarning,0836.3,4.99,000.00,032.4,024.5,000.0,039.4,030.5,34.2,0001.4,0012.82,0018.81,0011.93
2023-08-20 18:41:00,SystemResetWarning,0836.3,5.00,000.00,032.2,024.8,000.0,039.4,030.5,34.4,0001.6,0012.83,0018.78,0011.93
2023-08-20 18:42:00,SystemResetWarning,0836.2,5.00,000.00,032.0,025.2,000.0,039.5,030.5,34.6,0001.5,0012.81,0019.58,0011.90
2023-08-20 18:43:00,SystemResetWarning,0836.3,4.99,000.00,032.0,025.6,000.0,039.5,030.7,34.9,0001.6,0012.79,0019.74,0011.86
2023-08-20 18:44:00,SystemResetWarning,0836.3,5.01,000.00,032.0,026.0,000.0,039.6,030.8,34.7,0001.7,0012.85,0019.88,0011.86
2023-08-20 18:45:00,SystemResetWarning,0836.2,4.98,000.00,032.0,026.0,000.0,039.5,030.8,35.0,0001.3,0012.85,0019.72,0011.86
2023-08-20 18:46:00,SystemResetWarning,0836.2,5.00,000.00,032.1,025.0,000.0,039.4,030.8,35.0,0001.2,0012.82,0019.12,0011.82
2023-08-20 18:47:00,SystemResetWarning,0836.2,5.01,000.00,032.2,024.3,000.0,039.3,030.7,34.9,0001.3,0012.85,0019.16,0011.79
2023-08-20 18:48:00,SystemResetWarning,0836.1,4.99,000.00,032.3,024.4,000.0,039.3,030.7,35.2,0001.6,0012.86,0019.90,0011.80
2023-08-20 18:49:00,SystemResetWarning,0836.1,5.02,000.00,032.3,024.7,000.0,039.3,030.7,34.9,0001.6,0012.91,0019.65,0011.81
2023-08-20 18:50:00,SystemResetWarning,0836.2,4.98,000.00,032.4,025.1,000.0,039.4,030.7,34.7,0001.9,0012.95,0019.63,0011.82
2023-08-20 18:51:00,SystemResetWarning,0836.2,5.02,000.00,032.4,025.6,000.0,039.4,030.8,34.8,0001.9,0012.98,0019.23,0011.84
2023-08-20 18:52:00,SystemResetWarning,0836.1,4.99,000.00,032.4,026.0,000.0,039.5,030.9,34.6,0001.7,0013.04,0019.49,0011.89
2023-08-20 18:53:00,SystemResetWarning,0836.1,5.00,000.00,032.4,026.3,000.0,039.6,030.9,34.6,0001.8,0013.13,0018.97,0011.95
2023-08-20 18:54:00,SystemResetWarning,0836.2,4.99,000.00,032.4,025.7,000.0,039.5,030.9,34.2,0001.8,0013.18,0018.86,0012.00
2023-08-20 18:55:00,SystemResetWarning,0836.1,4.99,000.00,032.4,024.6,000.0,039.4,030.7,34.3,0001.9,0013.18,0019.02,0012.05
2023-08-20 18:56:00,SystemResetWarning,0836.1,5.00,000.00,032.3,024.4,000.0,039.4,030.6,34.5,0002.0,0013.18,0019.28,0012.07
2023-08-20 18:57:00,SystemResetWarning,0836.1,4.99,000.00,032.1,024.6,000.0,039.4,030.4,35.2,0001.9,0013.17,0019.83,0012.07
2023-08-20 18:58:00,SystemResetWarning,0836.1,5.02,000.00,032.0,024.9,000.0,039.5,030.5,35.8,0001.8,0013.08,0019.63,0012.04
2023-08-20 18:59:00,SystemResetWarning,0836.1,4.99,000.00,032.1,025.4,000.0,039.5,030.7,35.6,0001.7,0013.05,0018.93,0012.00
